This demonstration page uses our WeatherBlox Daily Observations layout. Learn more.

Left ArrowRight Arrow

44.8408, -93.29828

Hourly Observations for April 23, 2022

Temp ( °F °C ) Dew Point ( °F °C ) Humidity (%) Winds ( mph kmh ) Pressure ( in mb ) Visibility ( mi km ) Precip ( " mm )
12:53 am 00:53 Cloudy with Mist and Fog 53 11.7 51 10.6 93 93 SE 18 30 29.75 1007 6 10 0.00 0.00
1:23 am 01:23 Cloudy with Mist and Fog 53 11.7 51 10.6 93 93 SE 15 24 29.72 1007 6 10 0.00 0.00
1:53 am 01:53 Cloudy with Mist and Fog 54 12.2 52 11.1 93 93 SE 18 30 29.72 1006 6 10 0.00 0.00
2:14 am 02:14 Cloudy with Mist and Fog 55 12.8 52 11.1 90 90 SE 18 30 29.70 1006 6 10 0.00 0.00
2:53 am 02:53 Cloudy 54 12.2 52 11.1 93 93 SE 20 31 29.67 1005 7 11 0.00 0.00
3:53 am 03:53 Clear with Mist and Fog 54 12.2 52 11.1 93 93 SE 16 26 29.64 1004 6 10 0.00 0.00
4:53 am 04:53 Clear with Mist and Fog 53 11.7 52 11.1 96 96 ESE 12 19 29.62 1003 6 10 0.00 0.00
5:53 am 05:53 Partly Cloudy 55 12.8 52 11.1 90 90 SE 14 22 29.60 1002 9 14 0.00 0.00
6:53 am 06:53 Mostly Cloudy 56 13.3 53 11.7 90 90 SE 15 24 29.60 1002 9 14 0.00 0.00
7:53 am 07:53 Cloudy 58 14.4 54 12.2 87 87 SE 15 24 29.60 1003 10 16 0.00 0.00
8:53 am 08:53 Cloudy with Nearby Thunderstorms 61 16.1 56 13.3 84 84 S 14 22 29.60 1002 4 6 0.01 0.25
9:01 am 09:01 Cloudy with Thunderstorms 63 17.2 56 13.3 78 78 S 18 30 29.59 1002 4 6 0.10 2.54
9:24 am 09:24 Mostly Cloudy with Light Rain 61 16.1 56 13.3 84 84 SE 9 15 29.58 1002 10 16 0.14 3.56
9:53 am 09:53 Mostly Cloudy 61 16.1 56 13.3 84 84 SE 15 24 29.57 1002 10 16 0.14 3.56
10:53 am 10:53 Cloudy 65 18.3 57 13.9 76 76 SSE 21 33 29.54 1000 10 16 0.00 0.00
11:02 am 11:02 Cloudy 65 18.3 57 13.9 76 76 SSE 22 35 29.52 1000 10 16 0.00 0.00
11:26 am 11:26 Cloudy 66 18.9 58 14.4 75 75 SSE 16 26 29.50 999 10 16 0.00 0.00
11:53 am 11:53 Cloudy 66 18.9 57 13.9 73 73 SSE 23 37 29.52 1000 10 16 0.00 0.00
12:53 pm 12:53 Cloudy 67 19.4 57 13.9 71 71 SSE 24 39 29.50 999 10 16 0.00 0.00
1:48 pm 13:48 Cloudy 66 19 57 14 73 73 S 16 26 29.49 999 10 16 0.00 0.00
1:53 pm 13:53 Cloudy 66 18.9 58 14.4 75 75 SSE 14 22 29.49 999 10 16 0.00 0.00
2:53 pm 14:53 Cloudy 69 20.6 57 13.9 66 66 S 26 43 29.48 998 10 16 0.00 0.00
3:53 pm 15:53 Cloudy 70 21.1 57 13.9 64 64 S 25 41 29.47 998 10 16 0.00 0.00
4:53 pm 16:53 Mostly Cloudy 73 22.8 56 13.3 55 55 S 28 44 29.45 997 10 16 0.00 0.00
5:53 pm 17:53 Mostly Cloudy 73 22.8 56 13.3 55 55 S 15 24 29.41 996 10 16 0.00 0.00
6:53 pm 18:53 Mostly Cloudy with Nearby Thunderstorms 72 22.2 55 12.8 55 55 S 24 39 29.38 995 10 16 0.00 0.00
7:15 pm 19:15 Windy with Storms Likely 69 20.6 57 13.9 66 66 S 25 41 29.39 995 9 14 0.01 0.25
7:31 pm 19:31 Mostly Cloudy with Thunderstorms 65 18.3 58 14.4 78 78 S 26 43 29.40 996 2 3 0.11 2.79
7:40 pm 19:40 Windy with Storms Likely 62 16.7 55 12.8 78 78 S 22 35 29.41 996 5 8 0.11 2.79
7:53 pm 19:53 Cloudy with Nearby Thunderstorms 61 16.1 54 12.2 78 78 SSE 17 28 29.41 996 10 16 0.11 2.79
8:21 pm 20:21 Cloudy with Light Rain 60 15.6 53 11.7 78 78 SSE 24 39 29.41 996 10 16 0.00 0.00
8:53 pm 20:53 Cloudy with Light Rain 58 14.4 51 10.6 78 78 S 17 28 29.41 996 10 16 0.02 0.51
9:53 pm 21:53 Partly Cloudy 58 14.4 51 10.6 78 78 SSE 15 24 29.44 997 10 16 0.00 0.00
10:53 pm 22:53 Mostly Clear 58 14.4 52 11.1 81 81 SSE 13 20 29.42 996 10 16 0.00 0.00
11:53 pm 23:53 Mostly Cloudy 59 15 52 11.1 78 78 SW 13 20 29.44 997 10 16 0.00 0.00

Powered by AerisWeather